Time,TemperatureF,DewpointF,PressureIn,WindDirection,WindDirectionDegrees,WindSpeedMPH,WindSpeedGustMPH,Humidity,HourlyPrecipIn,Conditions,Clouds,dailyrainin,SolarRadiationWatts/m^2,SoftwareType,DateUTC
2013-06-28 00:05:00,67.8,64.8,29.69,NE,46,0.0,0.0,90,0.00,,,0.00,0,Wunderground v.1.15,2013-06-28 05:05:00,
2013-06-28 00:09:00,67.4,64.7,29.69,NE,46,0.0,0.0,91,0.00,,,0.00,0,Wunderground v.1.15,2013-06-28 05:09:00,
2013-06-28 00:14:00,67.4,64.7,29.69,NE,36,0.0,5.0,91,0.00,,,0.00,0,Wunderground v.1.15,2013-06-28 05:14:00,
2013-06-28 00:20:00,67.2,64.5,29.69,NE,55,3.0,3.0,91,0.00,,,0.00,0,Wunderground v.1.15,2013-06-28 05:20:00,
2013-06-28 00:25:00,67.2,64.5,29.69,NNE,32,4.0,4.0,91,0.00,,,0.00,0,Wunderground v.1.15,2013-06-28 05:25:00,
2013-06-28 00:30:00,67.2,64.2,29.69,NNE,31,3.0,3.0,90,0.00,,,0.00,0,Wunderground v.1.15,2013-06-28 05:30:00,
2013-06-28 00:36:00,67.3,64.3,29.69,North,9,2.0,4.0,90,0.00,,,0.00,0,Wunderground v.1.15,2013-06-28 05:36:00,
2013-06-28 00:41:00,67.5,64.5,29.69,North,9,2.0,3.0,90,0.00,,,0.00,0,Wunderground v.1.15,2013-06-28 05:41:00,
2013-06-28 00:46:00,67.3,64.3,29.70,NNE,22,3.0,5.0,90,0.00,,,0.00,0,Wunderground v.1.15,2013-06-28 05:46:00,
2013-06-28 00:51:00,67.1,64.1,29.70,NNE,22,3.0,3.0,90,0.00,,,0.00,0,Wunderground v.1.15,2013-06-28 05:51:00,
2013-06-28 00:57:00,67.3,64.6,29.70,NNE,22,2.0,3.0,91,0.00,,,0.00,0,Wunderground v.1.15,2013-06-28 05:57:00,
2013-06-28 01:03:00,67.4,64.7,29.69,NNE,22,1.0,2.0,91,0.00,,,0.00,0,Wunderground v.1.15,2013-06-28 06:03:00,
2013-06-28 01:08:00,67.3,64.6,29.69,NNE,22,1.0,3.0,91,0.00,,,0.00,0,Wunderground v.1.15,2013-06-28 06:08:00,
2013-06-28 01:13:00,67.4,64.7,29.69,NNE,22,1.0,1.0,91,0.00,,,0.00,0,Wunderground v.1.15,2013-06-28 06:13:00,
2013-06-28 01:18:00,67.5,64.5,29.69,West,279,1.0,3.0,90,0.00,,,0.00,0,Wunderground v.1.15,2013-06-28 06:18:00,
2013-06-28 01:23:00,67.5,64.5,29.69,WSW,254,2.0,3.0,90,0.00,,,0.00,0,Wunderground v.1.15,2013-06-28 06:23:00,
2013-06-28 01:28:00,67.4,64.4,29.69,WSW,254,3.0,3.0,90,0.00,,,0.00,0,Wunderground v.1.15,2013-06-28 06:28:00,
2013-06-28 01:34:00,67.4,64.4,29.69,WSW,254,3.0,4.0,90,0.00,,,0.00,0,Wunderground v.1.15,2013-06-28 06:34:00,
2013-06-28 01:40:00,67.6,64.9,29.69,WSW,254,3.0,4.0,91,0.00,,,0.00,0,Wunderground v.1.15,2013-06-28 06:40:00,
2013-06-28 01:46:00,67.2,64.2,29.68,WSW,254,3.0,4.0,90,0.00,,,0.00,0,Wunderground v.1.15,2013-06-28 06:46:00,
2013-06-28 01:52:00,67.0,64.3,29.68,WSW,254,4.0,4.0,91,0.00,,,0.00,0,Wunderground v.1.15,2013-06-28 06:52:00,
2013-06-28 01:58:00,67.0,64.3,29.68,WSW,254,3.0,4.0,91,0.00,,,0.00,0,Wunderground v.1.15,2013-06-28 06:58:00,
2013-06-28 02:03:00,67.2,64.5,29.68,WSW,254,2.0,2.0,91,0.00,,,0.00,0,Wunderground v.1.15,2013-06-28 07:03:00,
2013-06-28 02:08:00,67.2,64.2,29.68,WSW,255,1.0,2.0,90,0.00,,,0.00,0,Wunderground v.1.15,2013-06-28 07:08:00,
2013-06-28 02:13:00,67.3,63.9,29.68,West,275,2.0,4.0,89,0.00,,,0.00,0,Wunderground v.1.15,2013-06-28 07:13:00,
2013-06-28 02:19:00,67.1,63.7,29.67,West,275,3.0,4.0,89,0.00,,,0.00,0,Wunderground v.1.15,2013-06-28 07:19:00,
2013-06-28 02:24:00,67.1,63.7,29.67,West,267,3.0,4.0,89,0.00,,,0.00,0,Wunderground v.1.15,2013-06-28 07:24:00,
2013-06-28 02:30:00,67.1,63.7,29.67,West,267,3.0,4.0,89,0.00,,,0.00,0,Wunderground v.1.15,2013-06-28 07:30:00,
2013-06-28 02:36:00,67.2,63.8,29.67,West,268,3.0,4.0,89,0.00,,,0.00,0,Wunderground v.1.15,2013-06-28 07:36:00,
2013-06-28 02:41:00,67.1,63.7,29.67,WSW,254,4.0,4.0,89,0.00,,,0.00,0,Wunderground v.1.15,2013-06-28 07:41:00,
2013-06-28 02:47:00,67.1,63.4,29.68,West,273,4.0,4.0,88,0.00,,,0.00,0,Wunderground v.1.15,2013-06-28 07:47:00,
2013-06-28 02:53:00,67.1,63.4,29.68,West,267,4.0,5.0,88,0.00,,,0.00,0,Wunderground v.1.15,2013-06-28 07:53:00,
2013-06-28 02:59:00,67.1,63.1,29.68,West,275,4.0,5.0,87,0.00,,,0.00,0,Wunderground v.1.15,2013-06-28 07:59:00,
2013-06-28 03:05:00,67.2,63.2,29.68,West,268,4.0,5.0,87,0.00,,,0.00,0,Wunderground v.1.15,2013-06-28 08:05:00,
2013-06-28 03:11:00,67.2,62.9,29.68,West,271,3.0,4.0,86,0.00,,,0.00,0,Wunderground v.1.15,2013-06-28 08:11:00,
2013-06-28 03:16:00,67.2,63.2,29.67,West,276,3.0,4.0,87,0.00,,,0.00,0,Wunderground v.1.15,2013-06-28 08:16:00,
2013-06-28 03:21:00,67.1,62.8,29.67,WNW,284,3.0,3.0,86,0.00,,,0.00,0,Wunderground v.1.15,2013-06-28 08:21:00,
2013-06-28 03:27:00,67.1,63.1,29.67,WNW,301,4.0,5.0,87,0.00,,,0.00,0,Wunderground v.1.15,2013-06-28 08:27:00,
2013-06-28 03:33:00,67.1,63.1,29.67,WNW,302,4.0,4.0,87,0.00,,,0.00,0,Wunderground v.1.15,2013-06-28 08:33:00,
2013-06-28 03:39:00,67.1,63.1,29.67,WNW,302,3.0,4.0,87,0.00,,,0.00,0,Wunderground v.1.15,2013-06-28 08:39:00,
2013-06-28 03:44:00,67.1,63.1,29.67,WNW,286,2.0,3.0,87,0.00,,,0.00,0,Wunderground v.1.15,2013-06-28 08:44:00,
2013-06-28 03:49:00,66.7,63.0,29.67,WNW,288,3.0,4.0,88,0.00,,,0.00,0,Wunderground v.1.15,2013-06-28 08:49:00,
2013-06-28 03:54:00,66.6,62.9,29.67,WNW,298,3.0,4.0,88,0.00,,,0.00,0,Wunderground v.1.15,2013-06-28 08:54:00,
2013-06-28 04:00:00,66.5,62.5,29.66,WNW,298,3.0,4.0,87,0.00,,,0.00,0,Wunderground v.1.15,2013-06-28 09:00:00,
2013-06-28 04:06:00,66.8,62.8,29.66,WNW,282,3.0,5.0,87,0.00,,,0.00,0,Wunderground v.1.15,2013-06-28 09:06:00,
2013-06-28 04:11:00,66.9,62.9,29.66,NW,309,3.0,3.0,87,0.00,,,0.00,0,Wunderground v.1.15,2013-06-28 09:11:00,
2013-06-28 04:16:00,66.8,62.5,29.66,WNW,293,3.0,5.0,86,0.00,,,0.00,0,Wunderground v.1.15,2013-06-28 09:16:00,
2013-06-28 04:22:00,66.7,62.4,29.66,WNW,293,3.0,3.0,86,0.00,,,0.00,0,Wunderground v.1.15,2013-06-28 09:22:00,
2013-06-28 04:27:00,66.8,62.5,29.66,WNW,293,2.0,3.0,86,0.00,,,0.00,0,Wunderground v.1.15,2013-06-28 09:27:00,
2013-06-28 04:32:00,66.7,62.4,29.66,West,273,2.0,4.0,86,0.00,,,0.00,0,Wunderground v.1.15,2013-06-28 09:32:00,
2013-06-28 04:38:00,66.7,62.4,29.66,SW,227,3.0,6.0,86,0.00,,,0.00,0,Wunderground v.1.15,2013-06-28 09:38:00,
2013-06-28 04:43:00,66.7,62.4,29.66,SW,223,4.0,6.0,86,0.00,,,0.00,0,Wunderground v.1.15,2013-06-28 09:43:00,
2013-06-28 04:49:00,66.7,62.4,29.66,SW,220,4.0,6.0,86,0.00,,,0.00,0,Wunderground v.1.15,2013-06-28 09:49:00,
2013-06-28 04:55:00,66.6,62.3,29.66,SW,228,4.0,6.0,86,0.00,,,0.00,0,Wunderground v.1.15,2013-06-28 09:55:00,
2013-06-28 05:00:00,66.5,62.5,29.65,WSW,240,4.0,6.0,87,0.00,,,0.00,0,Wunderground v.1.15,2013-06-28 10:00:00,
2013-06-28 05:05:00,66.5,62.2,29.65,West,264,3.0,5.0,86,0.00,,,0.00,0,Wunderground v.1.15,2013-06-28 10:05:00,
2013-06-28 05:10:00,66.7,62.7,29.65,West,265,3.0,3.0,87,0.00,,,0.00,0,Wunderground v.1.15,2013-06-28 10:10:00,
2013-06-28 05:15:00,66.9,62.2,29.65,West,270,3.0,6.0,85,0.00,,,0.00,0,Wunderground v.1.15,2013-06-28 10:15:00,
2013-06-28 05:20:00,67.3,62.3,29.65,West,259,4.0,4.0,84,0.00,,,0.00,0,Wunderground v.1.15,2013-06-28 10:20:00,
2013-06-28 05:26:00,67.5,62.2,29.65,West,267,4.0,5.0,83,0.00,,,0.00,5,Wunderground v.1.15,2013-06-28 10:26:00,
2013-06-28 05:32:00,67.8,61.8,29.66,WNW,286,4.0,8.0,81,0.00,,,0.00,7,Wunderground v.1.15,2013-06-28 10:32:00,
2013-06-28 05:38:00,68.2,62.1,29.66,West,279,5.0,8.0,81,0.00,,,0.00,7,Wunderground v.1.15,2013-06-28 10:38:00,
2013-06-28 05:44:00,68.3,61.2,29.66,WNW,286,6.0,7.0,78,0.00,,,0.00,9,Wunderground v.1.15,2013-06-28 10:44:00,
2013-06-28 05:50:00,68.2,61.4,29.66,West,279,7.0,7.0,79,0.00,,,0.00,11,Wunderground v.1.15,2013-06-28 10:50:00,
2013-06-28 05:56:00,67.9,60.8,29.66,WNW,284,7.0,10.0,78,0.00,,,0.00,12,Wunderground v.1.15,2013-06-28 10:56:00,
2013-06-28 06:01:00,67.6,60.9,29.66,WNW,287,7.0,7.0,79,0.00,,,0.00,12,Wunderground v.1.15,2013-06-28 11:01:00,
2013-06-28 06:06:00,67.4,60.7,29.66,WNW,285,7.0,10.0,79,0.00,,,0.00,14,Wunderground v.1.15,2013-06-28 11:06:00,
2013-06-28 06:12:00,67.3,60.6,29.66,West,277,8.0,8.0,79,0.00,,,0.00,14,Wunderground v.1.15,2013-06-28 11:12:00,
2013-06-28 06:18:00,67.1,60.0,29.67,WNW,289,8.0,9.0,78,0.00,,,0.00,16,Wunderground v.1.15,2013-06-28 11:18:00,
2013-06-28 06:23:00,67.1,60.4,29.67,WNW,302,7.0,7.0,79,0.00,,,0.00,19,Wunderground v.1.15,2013-06-28 11:23:00,
2013-06-28 06:28:00,67.0,59.9,29.67,WNW,298,6.0,7.0,78,0.00,,,0.00,21,Wunderground v.1.15,2013-06-28 11:28:00,
2013-06-28 06:34:00,66.8,59.7,29.67,WNW,282,6.0,6.0,78,0.00,,,0.00,23,Wunderground v.1.15,2013-06-28 11:34:00,
2013-06-28 06:40:00,66.7,59.6,29.67,WNW,293,6.0,8.0,78,0.00,,,0.00,26,Wunderground v.1.15,2013-06-28 11:40:00,
2013-06-28 06:46:00,66.8,59.7,29.67,WNW,292,6.0,6.0,78,0.00,,,0.00,26,Wunderground v.1.15,2013-06-28 11:46:00,
2013-06-28 06:52:00,66.8,59.4,29.67,WNW,293,6.0,6.0,77,0.00,,,0.00,26,Wunderground v.1.15,2013-06-28 11:52:00,
2013-06-28 06:58:00,66.7,59.6,29.67,WNW,290,5.0,6.0,78,0.00,,,0.00,32,Wunderground v.1.15,2013-06-28 11:58:00,
2013-06-28 07:03:00,66.8,59.7,29.67,WNW,294,5.0,7.0,78,0.00,,,0.00,49,Wunderground v.1.15,2013-06-28 12:03:00,
2013-06-28 07:08:00,66.8,59.4,29.67,WNW,292,6.0,8.0,77,0.00,,,0.00,44,Wunderground v.1.15,2013-06-28 12:08:00,
2013-06-28 07:14:00,66.8,59.4,29.67,WNW,284,6.0,7.0,77,0.00,,,0.00,81,Wunderground v.1.15,2013-06-28 12:14:00,
2013-06-28 07:19:00,66.7,59.6,29.67,WNW,286,6.0,7.0,78,0.00,,,0.00,46,Wunderground v.1.15,2013-06-28 12:19:00,
2013-06-28 07:25:00,66.6,59.9,29.67,NW,304,5.0,7.0,79,0.00,,,0.00,76,Wunderground v.1.15,2013-06-28 12:25:00,
2013-06-28 07:30:00,66.5,59.8,29.66,West,279,5.0,7.0,79,0.00,,,0.00,37,Wunderground v.1.15,2013-06-28 12:30:00,
2013-06-28 07:35:00,66.4,59.7,29.66,WNW,288,5.0,6.0,79,0.00,,,0.00,91,Wunderground v.1.15,2013-06-28 12:35:00,
2013-06-28 07:40:00,66.2,60.2,29.66,WNW,298,5.0,6.0,81,0.00,,,0.00,56,Wunderground v.1.15,2013-06-28 12:40:00,
2013-06-28 07:45:00,66.2,59.8,29.66,WNW,300,5.0,6.0,80,0.00,,,0.00,371,Wunderground v.1.15,2013-06-28 12:45:00,
2013-06-28 07:50:00,66.4,59.7,29.66,WNW,286,5.0,6.0,79,0.00,,,0.00,385,Wunderground v.1.15,2013-06-28 12:50:00,
2013-06-28 07:56:00,67.1,60.4,29.66,WNW,298,5.0,7.0,79,0.00,,,0.00,404,Wunderground v.1.15,2013-06-28 12:56:00,
2013-06-28 08:02:00,67.5,60.4,29.66,NW,304,6.0,9.0,78,0.00,,,0.00,418,Wunderground v.1.15,2013-06-28 13:02:00,
2013-06-28 08:08:00,68.1,60.6,29.66,NW,304,7.0,11.0,77,0.00,,,0.00,438,Wunderground v.1.15,2013-06-28 13:08:00,
2013-06-28 08:13:00,68.4,60.5,29.66,West,267,7.0,8.0,76,0.00,,,0.00,459,Wunderground v.1.15,2013-06-28 13:13:00,
2013-06-28 08:19:00,68.8,60.9,29.66,WNW,292,7.0,8.0,76,0.00,,,0.00,476,Wunderground v.1.15,2013-06-28 13:19:00,
2013-06-28 08:25:00,69.1,60.8,29.66,WNW,285,8.0,9.0,75,0.00,,,0.00,492,Wunderground v.1.15,2013-06-28 13:25:00,
2013-06-28 08:30:00,69.4,60.8,29.66,WNW,292,7.0,9.0,74,0.00,,,0.00,506,Wunderground v.1.15,2013-06-28 13:30:00,
2013-06-28 08:35:00,69.8,60.4,29.66,West,277,8.0,10.0,72,0.00,,,0.00,524,Wunderground v.1.15,2013-06-28 13:35:00,
2013-06-28 08:41:00,69.9,60.5,29.66,WNW,284,9.0,10.0,72,0.00,,,0.00,540,Wunderground v.1.15,2013-06-28 13:41:00,
2013-06-28 08:48:00,70.0,60.2,29.66,West,272,9.0,11.0,71,0.00,,,0.00,561,Wunderground v.1.15,2013-06-28 13:48:00,
2013-06-28 08:53:00,70.1,60.3,29.66,WNW,297,9.0,12.0,71,0.00,,,0.00,578,Wunderground v.1.15,2013-06-28 13:53:00,
2013-06-28 08:59:00,70.4,61.3,29.66,WNW,286,8.0,12.0,73,0.00,,,0.00,592,Wunderground v.1.15,2013-06-28 13:59:00,
2013-06-28 09:03:00,70.6,61.5,29.65,WNW,300,8.0,11.0,73,0.00,,,0.00,605,Wunderground v.1.15,2013-06-28 14:03:00,
2013-06-28 09:09:00,70.8,61.7,29.65,West,272,8.0,11.0,73,0.00,,,0.00,622,Wunderground v.1.15,2013-06-28 14:09:00,
2013-06-28 09:15:00,70.9,61.0,29.65,WNW,299,9.0,11.0,71,0.00,,,0.00,642,Wunderground v.1.15,2013-06-28 14:15:00,
2013-06-28 09:21:00,71.2,60.9,29.65,WNW,292,9.0,10.0,70,0.00,,,0.00,656,Wunderground v.1.15,2013-06-28 14:21:00,
2013-06-28 09:27:00,71.4,61.1,29.65,WNW,295,9.0,10.0,70,0.00,,,0.00,670,Wunderground v.1.15,2013-06-28 14:27:00,
2013-06-28 09:32:00,71.6,61.7,29.65,WNW,288,9.0,9.0,71,0.00,,,0.00,682,Wunderground v.1.15,2013-06-28 14:32:00,
2013-06-28 09:38:00,71.8,61.5,29.65,WNW,294,10.0,14.0,70,0.00,,,0.00,698,Wunderground v.1.15,2013-06-28 14:38:00,
2013-06-28 09:43:00,71.8,60.7,29.65,West,278,11.0,11.0,68,0.00,,,0.00,707,Wunderground v.1.15,2013-06-28 14:43:00,
2013-06-28 09:48:00,71.9,61.2,29.64,WNW,286,11.0,13.0,69,0.00,,,0.00,719,Wunderground v.1.15,2013-06-28 14:48:00,
2013-06-28 09:53:00,72.1,61.8,29.64,WNW,284,11.0,12.0,70,0.00,,,0.00,737,Wunderground v.1.15,2013-06-28 14:53:00,
2013-06-28 09:58:00,72.3,61.6,29.64,WNW,298,10.0,12.0,69,0.00,,,0.00,749,Wunderground v.1.15,2013-06-28 14:58:00,
2013-06-28 10:04:00,72.4,60.4,29.64,West,279,10.0,14.0,66,0.00,,,0.00,763,Wunderground v.1.15,2013-06-28 15:04:00,
2013-06-28 10:09:00,72.5,60.5,29.64,West,279,11.0,14.0,66,0.00,,,0.00,777,Wunderground v.1.15,2013-06-28 15:09:00,
2013-06-28 10:15:00,72.7,61.5,29.64,WSW,257,10.0,11.0,68,0.00,,,0.00,786,Wunderground v.1.15,2013-06-28 15:15:00,
2013-06-28 10:20:00,72.8,61.2,29.64,WNW,300,10.0,14.0,67,0.00,,,0.00,798,Wunderground v.1.15,2013-06-28 15:20:00,
2013-06-28 10:25:00,73.0,61.4,29.64,WNW,300,10.0,12.0,67,0.00,,,0.00,816,Wunderground v.1.15,2013-06-28 15:25:00,
2013-06-28 10:30:00,73.1,60.2,29.64,WNW,294,11.0,11.0,64,0.00,,,0.00,844,Wunderground v.1.15,2013-06-28 15:30:00,
2013-06-28 10:36:00,73.2,60.7,29.64,WNW,293,11.0,12.0,65,0.00,,,0.00,849,Wunderground v.1.15,2013-06-28 15:36:00,
2013-06-28 10:42:00,73.3,61.7,29.64,NW,309,9.0,10.0,67,0.00,,,0.00,863,Wunderground v.1.15,2013-06-28 15:42:00,
2013-06-28 10:48:00,73.4,60.9,29.64,West,273,9.0,13.0,65,0.00,,,0.00,893,Wunderground v.1.15,2013-06-28 15:48:00,
2013-06-28 10:53:00,73.3,59.5,29.64,WNW,288,10.0,10.0,62,0.00,,,0.00,886,Wunderground v.1.15,2013-06-28 15:53:00,
2013-06-28 10:58:00,73.7,59.9,29.64,NW,324,10.0,10.0,62,0.00,,,0.00,874,Wunderground v.1.15,2013-06-28 15:58:00,
2013-06-28 11:03:00,73.9,61.0,29.64,WNW,299,9.0,12.0,64,0.00,,,0.00,895,Wunderground v.1.15,2013-06-28 16:03:00,
2013-06-28 11:08:00,74.0,60.2,29.64,NW,306,9.0,12.0,62,0.00,,,0.00,962,Wunderground v.1.15,2013-06-28 16:08:00,
2013-06-28 11:13:00,73.8,60.0,29.64,WNW,287,10.0,15.0,62,0.00,,,0.00,954,Wunderground v.1.15,2013-06-28 16:13:00,
2013-06-28 11:18:00,73.8,60.0,29.64,NW,311,12.0,15.0,62,0.00,,,0.00,962,Wunderground v.1.15,2013-06-28 16:18:00,
2013-06-28 11:24:00,74.2,59.4,29.64,NW,306,11.0,11.0,60,0.00,,,0.00,998,Wunderground v.1.15,2013-06-28 16:24:00,
2013-06-28 11:29:00,74.1,60.2,29.64,WNW,290,9.0,11.0,62,0.00,,,0.00,926,Wunderground v.1.15,2013-06-28 16:29:00,
2013-06-28 11:35:00,74.0,60.2,29.64,WNW,286,9.0,15.0,62,0.00,,,0.00,993,Wunderground v.1.15,2013-06-28 16:35:00,
2013-06-28 11:41:00,74.3,59.5,29.64,WNW,292,10.0,10.0,60,0.00,,,0.00,1058,Wunderground v.1.15,2013-06-28 16:41:00,
2013-06-28 11:46:00,74.6,60.3,29.64,WNW,284,9.0,10.0,61,0.00,,,0.00,1090,Wunderground v.1.15,2013-06-28 16:46:00,
2013-06-28 11:52:00,74.3,60.0,29.64,West,265,10.0,14.0,61,0.00,,,0.00,1085,Wunderground v.1.15,2013-06-28 16:52:00,
2013-06-28 11:58:00,74.1,59.3,29.64,West,270,10.0,14.0,60,0.00,,,0.00,308,Wunderground v.1.15,2013-06-28 16:58:00,
2013-06-28 12:03:00,74.3,60.0,29.64,West,273,10.0,13.0,61,0.00,,,0.00,301,Wunderground v.1.15,2013-06-28 17:03:00,
2013-06-28 12:09:00,74.5,61.5,29.64,WNW,286,9.0,13.0,64,0.00,,,0.00,1107,Wunderground v.1.15,2013-06-28 17:09:00,
2013-06-28 12:15:00,74.7,59.9,29.63,West,264,9.0,12.0,60,0.00,,,0.00,199,Wunderground v.1.15,2013-06-28 17:15:00,
2013-06-28 12:20:00,74.6,58.8,29.63,West,261,10.0,12.0,58,0.00,,,0.00,376,Wunderground v.1.15,2013-06-28 17:20:00,
2013-06-28 12:25:00,74.5,60.6,29.63,West,261,10.0,13.0,62,0.00,,,0.00,983,Wunderground v.1.15,2013-06-28 17:25:00,
2013-06-28 12:31:00,74.5,60.2,29.63,WNW,284,10.0,14.0,61,0.00,,,0.00,1097,Wunderground v.1.15,2013-06-28 17:31:00,
2013-06-28 12:36:00,74.6,60.3,29.63,SW,232,10.0,14.0,61,0.00,,,0.00,455,Wunderground v.1.15,2013-06-28 17:36:00,
2013-06-28 12:41:00,74.5,60.2,29.63,WNW,298,10.0,14.0,61,0.00,,,0.00,171,Wunderground v.1.15,2013-06-28 17:41:00,
2013-06-28 12:46:00,74.3,60.0,29.63,WNW,294,11.0,17.0,61,0.00,,,0.00,134,Wunderground v.1.15,2013-06-28 17:46:00,
2013-06-28 12:51:00,72.9,59.6,29.63,West,269,12.0,18.0,63,0.00,,,0.00,176,Wunderground v.1.15,2013-06-28 17:51:00,
2013-06-28 12:58:00,70.1,60.7,29.63,West,275,14.0,22.0,72,0.00,,,0.00,322,Wunderground v.1.15,2013-06-28 17:58:00,
2013-06-28 13:03:00,69.6,61.3,29.63,West,278,12.0,13.0,75,0.00,,,0.00,345,Wunderground v.1.15,2013-06-28 18:03:00,
2013-06-28 13:09:00,69.8,60.4,29.63,WNW,282,8.0,13.0,72,0.00,,,0.00,348,Wunderground v.1.15,2013-06-28 18:09:00,
2013-06-28 13:14:00,70.1,60.7,29.63,West,271,6.0,7.0,72,0.00,,,0.00,392,Wunderground v.1.15,2013-06-28 18:14:00,
2013-06-28 13:20:00,70.9,60.6,29.63,West,275,6.0,10.0,70,0.00,,,0.00,533,Wunderground v.1.15,2013-06-28 18:20:00,
2013-06-28 13:25:00,72.3,61.6,29.63,WNW,288,8.0,14.0,69,0.00,,,0.00,441,Wunderground v.1.15,2013-06-28 18:25:00,
2013-06-28 13:30:00,72.8,61.2,29.62,NW,320,10.0,14.0,67,0.00,,,0.00,998,Wunderground v.1.15,2013-06-28 18:30:00,
2013-06-28 13:35:00,73.2,62.0,29.62,WNW,298,11.0,12.0,68,0.00,,,0.00,471,Wunderground v.1.15,2013-06-28 18:35:00,
2013-06-28 13:41:00,73.0,60.5,29.62,NNW,338,10.0,10.0,65,0.00,,,0.00,424,Wunderground v.1.15,2013-06-28 18:41:00,
2013-06-28 13:46:00,72.8,60.8,29.61,NNW,327,9.0,10.0,66,0.00,,,0.00,396,Wunderground v.1.15,2013-06-28 18:46:00,
2013-06-28 13:52:00,72.6,60.6,29.61,NW,309,8.0,10.0,66,0.00,,,0.00,489,Wunderground v.1.15,2013-06-28 18:52:00,
2013-06-28 13:58:00,73.4,61.3,29.61,NW,308,7.0,14.0,66,0.00,,,0.00,1165,Wunderground v.1.15,2013-06-28 18:58:00,
2013-06-28 14:04:00,74.0,61.0,29.61,WNW,284,9.0,13.0,64,0.00,,,0.00,956,Wunderground v.1.15,2013-06-28 19:04:00,
2013-06-28 14:09:00,73.9,60.5,29.61,WNW,302,11.0,17.0,63,0.00,,,0.00,638,Wunderground v.1.15,2013-06-28 19:09:00,
2013-06-28 14:14:00,73.6,61.1,29.61,NNW,330,12.0,17.0,65,0.00,,,0.00,290,Wunderground v.1.15,2013-06-28 19:14:00,
2013-06-28 14:19:00,73.4,61.3,29.61,WNW,291,11.0,17.0,66,0.00,,,0.00,357,Wunderground v.1.15,2013-06-28 19:19:00,
2013-06-28 14:25:00,73.0,60.5,29.61,West,280,12.0,17.0,65,0.00,,,0.00,473,Wunderground v.1.15,2013-06-28 19:25:00,
2013-06-28 14:31:00,72.7,60.7,29.61,NW,306,14.0,14.0,66,0.00,,,0.00,406,Wunderground v.1.15,2013-06-28 19:31:00,
2013-06-28 14:36:00,73.1,60.6,29.61,WNW,300,12.0,21.0,65,0.00,,,0.00,1083,Wunderground v.1.15,2013-06-28 19:36:00,
2013-06-28 14:41:00,73.3,60.8,29.61,NW,317,13.0,13.0,65,0.00,,,0.00,243,Wunderground v.1.15,2013-06-28 19:41:00,
2013-06-28 14:47:00,73.8,61.3,29.59,NW,325,13.0,15.0,65,0.00,,,0.00,896,Wunderground v.1.15,2013-06-28 19:47:00,
2013-06-28 14:53:00,74.2,59.4,29.59,WNW,297,12.0,12.0,60,0.00,,,0.00,891,Wunderground v.1.15,2013-06-28 19:53:00,
2013-06-28 14:58:00,74.1,59.8,29.59,NW,320,13.0,21.0,61,0.00,,,0.00,993,Wunderground v.1.15,2013-06-28 19:58:00,
2013-06-28 15:04:00,74.1,60.2,29.59,WNW,296,13.0,13.0,62,0.00,,,0.00,619,Wunderground v.1.15,2013-06-28 20:04:00,
2013-06-28 15:10:00,73.6,60.2,29.59,NW,314,13.0,15.0,63,0.00,,,0.00,522,Wunderground v.1.15,2013-06-28 20:10:00,
2013-06-28 15:16:00,72.9,60.9,29.59,WNW,302,14.0,16.0,66,0.00,,,0.00,401,Wunderground v.1.15,2013-06-28 20:16:00,
2013-06-28 15:21:00,72.4,60.8,29.59,WNW,294,12.0,12.0,67,0.00,,,0.00,359,Wunderground v.1.15,2013-06-28 20:21:00,
2013-06-28 15:26:00,72.1,61.8,29.59,West,280,11.0,14.0,70,0.00,,,0.00,353,Wunderground v.1.15,2013-06-28 20:26:00,
2013-06-28 15:31:00,72.0,61.3,29.59,NW,310,12.0,16.0,69,0.00,,,0.00,443,Wunderground v.1.15,2013-06-28 20:31:00,
2013-06-28 15:37:00,72.1,62.2,29.59,NW,321,12.0,16.0,71,0.00,,,0.00,606,Wunderground v.1.15,2013-06-28 20:37:00,
2013-06-28 15:42:00,72.5,61.7,29.59,NW,323,10.0,11.0,69,0.00,,,0.00,824,Wunderground v.1.15,2013-06-28 20:42:00,
2013-06-28 15:48:00,73.0,62.6,29.59,NW,317,9.0,14.0,70,0.00,,,0.00,786,Wunderground v.1.15,2013-06-28 20:48:00,
2013-06-28 15:53:00,73.6,62.4,29.59,WNW,290,9.0,12.0,68,0.00,,,0.00,777,Wunderground v.1.15,2013-06-28 20:53:00,
2013-06-28 15:59:00,73.7,62.9,29.59,WNW,282,11.0,14.0,69,0.00,,,0.00,863,Wunderground v.1.15,2013-06-28 20:59:00,
2013-06-28 16:04:00,73.6,62.0,29.59,WNW,296,12.0,15.0,67,0.00,,,0.00,381,Wunderground v.1.15,2013-06-28 21:04:00,
2013-06-28 16:10:00,74.0,61.9,29.59,NW,318,11.0,15.0,66,0.00,,,0.00,295,Wunderground v.1.15,2013-06-28 21:10:00,
2013-06-28 16:15:00,74.3,61.3,29.59,North,350,11.0,16.0,64,0.00,,,0.00,875,Wunderground v.1.15,2013-06-28 21:15:00,
2013-06-28 16:21:00,74.3,61.3,29.59,WNW,299,14.0,14.0,64,0.00,,,0.00,146,Wunderground v.1.15,2013-06-28 21:21:00,
2013-06-28 16:27:00,73.8,61.7,29.59,WNW,284,12.0,14.0,66,0.00,,,0.00,722,Wunderground v.1.15,2013-06-28 21:27:00,
2013-06-28 16:32:00,73.6,61.5,29.59,NW,317,10.0,11.0,66,0.00,,,0.00,649,Wunderground v.1.15,2013-06-28 21:32:00,
2013-06-28 16:38:00,73.7,61.2,29.59,NW,315,10.0,17.0,65,0.00,,,0.00,722,Wunderground v.1.15,2013-06-28 21:38:00,
2013-06-28 16:43:00,74.0,61.9,29.59,WNW,294,11.0,11.0,66,0.00,,,0.00,633,Wunderground v.1.15,2013-06-28 21:43:00,
2013-06-28 16:49:00,74.1,62.0,29.58,WNW,294,10.0,13.0,66,0.00,,,0.00,617,Wunderground v.1.15,2013-06-28 21:49:00,
2013-06-28 16:55:00,74.2,61.2,29.58,West,261,10.0,16.0,64,0.00,,,0.00,615,Wunderground v.1.15,2013-06-28 21:55:00,
2013-06-28 17:01:00,73.9,61.0,29.59,NW,309,12.0,12.0,64,0.00,,,0.00,657,Wunderground v.1.15,2013-06-28 22:01:00,
2013-06-28 17:06:00,74.1,60.7,29.59,NW,308,11.0,12.0,63,0.00,,,0.00,606,Wunderground v.1.15,2013-06-28 22:06:00,
2013-06-28 17:11:00,74.0,61.9,29.59,NW,304,11.0,13.0,66,0.00,,,0.00,626,Wunderground v.1.15,2013-06-28 22:11:00,
2013-06-28 17:17:00,74.0,61.5,29.59,WNW,297,10.0,13.0,65,0.00,,,0.00,591,Wunderground v.1.15,2013-06-28 22:17:00,
2013-06-28 17:23:00,73.9,62.2,29.59,WNW,297,10.0,11.0,67,0.00,,,0.00,629,Wunderground v.1.15,2013-06-28 22:23:00,
2013-06-28 17:29:00,73.7,62.1,29.59,NW,321,10.0,12.0,67,0.00,,,0.00,109,Wunderground v.1.15,2013-06-28 22:29:00,
2013-06-28 17:35:00,73.2,62.0,29.59,NW,312,10.0,10.0,68,0.00,,,0.00,276,Wunderground v.1.15,2013-06-28 22:35:00,
2013-06-28 17:40:00,73.2,62.0,29.59,WNW,296,10.0,10.0,68,0.00,,,0.00,570,Wunderground v.1.15,2013-06-28 22:40:00,
2013-06-28 17:46:00,73.1,61.1,29.59,NW,312,11.0,17.0,66,0.00,,,0.00,489,Wunderground v.1.15,2013-06-28 22:46:00,
2013-06-28 17:52:00,73.1,62.7,29.59,NW,309,11.0,11.0,70,0.00,,,0.00,487,Wunderground v.1.15,2013-06-28 22:52:00,
2013-06-28 17:57:00,73.0,61.8,29.59,NW,319,11.0,14.0,68,0.00,,,0.00,473,Wunderground v.1.15,2013-06-28 22:57:00,
2013-06-28 18:02:00,72.9,61.7,29.59,NNW,327,10.0,12.0,68,0.00,,,0.00,436,Wunderground v.1.15,2013-06-28 23:02:00,
2013-06-28 18:07:00,72.8,61.6,29.59,NNW,330,10.0,12.0,68,0.00,,,0.00,65,Wunderground v.1.15,2013-06-28 23:07:00,
2013-06-28 18:13:00,72.7,62.8,29.59,NW,318,10.0,11.0,71,0.00,,,0.00,378,Wunderground v.1.15,2013-06-28 23:13:00,
2013-06-28 18:18:00,72.9,62.9,29.59,NNW,333,9.0,11.0,71,0.00,,,0.00,387,Wunderground v.1.15,2013-06-28 23:18:00,
2013-06-28 18:23:00,73.0,62.2,29.59,West,268,9.0,13.0,69,0.00,,,0.00,346,Wunderground v.1.15,2013-06-28 23:23:00,
2013-06-28 18:29:00,72.8,62.0,29.59,WNW,287,11.0,16.0,69,0.00,,,0.00,322,Wunderground v.1.15,2013-06-28 23:29:00,
2013-06-28 18:34:00,72.5,61.7,29.59,West,279,11.0,15.0,69,0.00,,,0.00,308,Wunderground v.1.15,2013-06-28 23:34:00,
2013-06-28 18:40:00,72.4,62.1,29.59,West,265,10.0,15.0,70,0.00,,,0.00,302,Wunderground v.1.15,2013-06-28 23:40:00,
2013-06-28 18:45:00,72.3,62.4,29.60,West,267,10.0,11.0,71,0.00,,,0.00,283,Wunderground v.1.15,2013-06-28 23:45:00,
2013-06-28 18:50:00,72.5,62.6,29.60,WNW,284,9.0,11.0,71,0.00,,,0.00,262,Wunderground v.1.15,2013-06-28 23:50:00,
2013-06-28 18:56:00,72.5,63.0,29.60,NW,305,8.0,9.0,72,0.00,,,0.00,234,Wunderground v.1.15,2013-06-28 23:56:00,
2013-06-28 19:01:00,72.5,62.6,29.59,NW,318,8.0,10.0,71,0.00,,,0.00,207,Wunderground v.1.15,2013-06-29 00:01:00,
2013-06-28 19:06:00,72.5,63.0,29.59,WNW,301,8.0,10.0,72,0.00,,,0.00,188,Wunderground v.1.15,2013-06-29 00:06:00,
2013-06-28 19:13:00,72.4,62.5,29.59,WNW,286,8.0,13.0,71,0.00,,,0.00,167,Wunderground v.1.15,2013-06-29 00:13:00,
2013-06-28 19:19:00,72.3,62.4,29.60,WNW,299,9.0,13.0,71,0.00,,,0.00,37,Wunderground v.1.15,2013-06-29 00:19:00,
2013-06-28 19:24:00,72.2,63.1,29.60,NNE,12,7.0,8.0,73,0.00,,,0.00,30,Wunderground v.1.15,2013-06-29 00:24:00,
2013-06-28 19:29:00,71.9,62.4,29.60,NW,318,6.0,10.0,72,0.00,,,0.00,25,Wunderground v.1.15,2013-06-29 00:29:00,
2013-06-28 19:35:00,71.8,62.3,29.60,NNW,329,7.0,7.0,72,0.00,,,0.00,25,Wunderground v.1.15,2013-06-29 00:35:00,
2013-06-28 19:40:00,71.6,62.9,29.60,NW,306,6.0,6.0,74,0.00,,,0.00,25,Wunderground v.1.15,2013-06-29 00:40:00,
2013-06-28 19:45:00,71.5,62.4,29.60,NW,321,6.0,7.0,73,0.00,,,0.00,26,Wunderground v.1.15,2013-06-29 00:45:00,
2013-06-28 19:51:00,71.4,62.7,29.60,NW,320,5.0,6.0,74,0.00,,,0.00,25,Wunderground v.1.15,2013-06-29 00:51:00,
2013-06-28 19:57:00,71.3,63.0,29.60,NW,311,5.0,6.0,75,0.00,,,0.00,25,Wunderground v.1.15,2013-06-29 00:57:00,
2013-06-28 20:03:00,71.1,62.8,29.61,NW,304,4.0,5.0,75,0.00,,,0.00,21,Wunderground v.1.15,2013-06-29 01:03:00,
2013-06-28 20:08:00,70.9,62.6,29.61,WNW,300,4.0,5.0,75,0.00,,,0.00,18,Wunderground v.1.15,2013-06-29 01:08:00,
2013-06-28 20:14:00,70.9,63.7,29.61,West,278,4.0,4.0,78,0.00,,,0.00,14,Wunderground v.1.15,2013-06-29 01:14:00,
2013-06-28 20:19:00,70.5,63.7,29.61,WNW,302,5.0,6.0,79,0.00,,,0.00,12,Wunderground v.1.15,2013-06-29 01:19:00,
2013-06-28 20:24:00,70.2,63.4,29.61,WNW,288,5.0,8.0,79,0.00,,,0.00,9,Wunderground v.1.15,2013-06-29 01:24:00,
2013-06-28 20:30:00,70.0,63.5,29.60,West,264,5.0,8.0,80,0.00,,,0.00,0,Wunderground v.1.15,2013-06-29 01:30:00,
2013-06-28 20:35:00,69.8,63.7,29.60,WNW,286,5.0,5.0,81,0.00,,,0.00,0,Wunderground v.1.15,2013-06-29 01:35:00,
2013-06-28 20:41:00,69.4,63.3,29.60,WNW,295,4.0,5.0,81,0.00,,,0.00,0,Wunderground v.1.15,2013-06-29 01:41:00,
2013-06-28 20:47:00,69.1,63.4,29.61,WNW,300,4.0,4.0,82,0.00,,,0.00,0,Wunderground v.1.15,2013-06-29 01:47:00,
2013-06-28 20:52:00,68.9,63.5,29.61,WNW,296,3.0,3.0,83,0.00,,,0.00,0,Wunderground v.1.15,2013-06-29 01:52:00,
2013-06-28 20:57:00,68.7,63.3,29.61,WNW,302,3.0,5.0,83,0.00,,,0.00,0,Wunderground v.1.15,2013-06-29 01:57:00,
2013-06-28 21:02:00,68.8,63.8,29.60,WNW,300,5.0,7.0,84,0.00,,,0.00,0,Wunderground v.1.15,2013-06-29 02:02:00,
2013-06-28 21:08:00,68.7,63.7,29.60,NW,325,6.0,7.0,84,0.00,,,0.00,0,Wunderground v.1.15,2013-06-29 02:08:00,
2013-06-28 21:13:00,68.5,62.8,29.60,NE,49,7.0,11.0,82,0.00,,,0.00,0,Wunderground v.1.15,2013-06-29 02:13:00,
2013-06-28 21:18:00,67.4,61.4,29.61,ENE,71,9.0,11.0,81,0.00,,,0.00,0,Wunderground v.1.15,2013-06-29 02:18:00,
2013-06-28 21:24:00,65.6,60.3,29.61,NE,46,6.0,7.0,83,1.17,,,0.05,0,Wunderground v.1.15,2013-06-29 02:24:00,
2013-06-28 21:29:00,64.2,59.9,29.63,NE,55,3.0,7.0,86,0.94,,,0.18,0,Wunderground v.1.15,2013-06-29 02:29:00,
2013-06-28 21:35:00,63.4,60.1,29.63,NE,55,1.0,3.0,89,0.38,,,0.23,0,Wunderground v.1.15,2013-06-29 02:35:00,
2013-06-28 21:40:00,63.3,60.3,29.63,NE,55,0.0,3.0,90,0.11,,,0.24,0,Wunderground v.1.15,2013-06-29 02:40:00,
2013-06-28 21:45:00,63.2,60.5,29.63,NE,55,1.0,2.0,91,0.32,,,0.25,0,Wunderground v.1.15,2013-06-29 02:45:00,
2013-06-28 21:51:00,63.2,60.5,29.63,NE,55,1.0,1.0,91,0.21,,,0.28,0,Wunderground v.1.15,2013-06-29 02:51:00,
2013-06-28 21:56:00,63.2,60.8,29.63,NE,55,0.0,1.0,92,0.14,,,0.29,0,Wunderground v.1.15,2013-06-29 02:56:00,
2013-06-28 22:01:00,63.9,61.5,29.63,NE,55,0.0,0.0,92,0.12,,,0.30,0,Wunderground v.1.15,2013-06-29 03:01:00,
2013-06-28 22:07:00,64.4,62.0,29.63,NE,55,0.0,0.0,92,0.12,,,0.31,0,Wunderground v.1.15,2013-06-29 03:07:00,
2013-06-28 22:13:00,64.6,62.2,29.63,NE,55,0.0,0.0,92,0.06,,,0.31,0,Wunderground v.1.15,2013-06-29 03:13:00,
2013-06-28 22:19:00,64.5,61.8,29.63,NE,55,0.0,2.0,91,0.04,,,0.31,0,Wunderground v.1.15,2013-06-29 03:19:00,
2013-06-28 22:24:00,64.3,61.9,29.63,NE,55,0.0,0.0,92,0.00,,,0.31,0,Wunderground v.1.15,2013-06-29 03:24:00,
2013-06-28 22:29:00,64.1,61.7,29.63,NE,55,0.0,0.0,92,0.00,,,0.31,0,Wunderground v.1.15,2013-06-29 03:29:00,
2013-06-28 22:35:00,64.2,61.8,29.63,NE,55,0.0,1.0,92,0.00,,,0.31,0,Wunderground v.1.15,2013-06-29 03:35:00,
2013-06-28 22:41:00,64.3,61.9,29.63,NE,55,0.0,0.0,92,0.00,,,0.31,0,Wunderground v.1.15,2013-06-29 03:41:00,
2013-06-28 22:47:00,64.0,61.6,29.63,NE,55,0.0,0.0,92,0.00,,,0.31,0,Wunderground v.1.15,2013-06-29 03:47:00,
2013-06-28 22:52:00,64.0,61.6,29.63,NE,55,0.0,0.0,92,0.00,,,0.31,0,Wunderground v.1.15,2013-06-29 03:52:00,
2013-06-28 22:57:00,64.1,61.7,29.63,NE,55,0.0,0.0,92,0.00,,,0.31,0,Wunderground v.1.15,2013-06-29 03:57:00,
2013-06-28 23:01:00,64.0,61.6,29.62,NE,55,0.0,0.0,92,0.00,,,0.31,0,Wunderground v.1.15,2013-06-29 04:01:00,
2013-06-28 23:03:00,63.9,61.8,29.62,NE,55,0.0,0.0,93,0.00,,,0.31,0,Wunderground v.1.15,2013-06-29 04:03:00,
2013-06-28 23:04:00,63.9,61.8,29.62,NE,55,0.0,0.0,93,0.00,,,0.31,0,Wunderground v.1.15,2013-06-29 04:04:00,
2013-06-28 23:06:00,63.8,61.7,29.62,NE,55,0.0,0.0,93,0.00,,,0.31,0,Wunderground v.1.15,2013-06-29 04:06:00,
2013-06-28 23:11:00,63.7,61.6,29.62,NE,55,0.0,0.0,93,0.00,,,0.31,0,Wunderground v.1.15,2013-06-29 04:11:00,
2013-06-28 23:16:00,63.7,61.6,29.61,NE,55,0.0,0.0,93,0.00,,,0.31,0,Wunderground v.1.15,2013-06-29 04:16:00,
2013-06-28 23:22:00,63.6,61.5,29.61,NE,55,0.0,0.0,93,0.00,,,0.31,0,Wunderground v.1.15,2013-06-29 04:22:00,
2013-06-28 23:27:00,63.7,61.6,29.61,NE,55,0.0,0.0,93,0.00,,,0.31,0,Wunderground v.1.15,2013-06-29 04:27:00,
2013-06-28 23:32:00,63.9,62.1,29.62,NE,55,0.0,0.0,94,0.00,,,0.31,0,Wunderground v.1.15,2013-06-29 04:32:00,
2013-06-28 23:38:00,64.1,62.0,29.62,NE,55,0.0,0.0,93,0.00,,,0.31,0,Wunderground v.1.15,2013-06-29 04:38:00,
2013-06-28 23:44:00,64.2,62.1,29.62,NE,55,0.0,1.0,93,0.00,,,0.31,0,Wunderground v.1.15,2013-06-29 04:44:00,
2013-06-28 23:49:00,64.2,62.1,29.61,NE,55,0.0,1.0,93,0.00,,,0.31,0,Wunderground v.1.15,2013-06-29 04:49:00,
2013-06-28 23:55:00,64.3,62.2,29.61,NE,55,0.0,1.0,93,0.00,,,0.31,0,Wunderground v.1.15,2013-06-29 04:55:00,